Pocatello, ID

4:22 PM MDT on May 27, 2018 (GMT -0600)
Pocatello Regional

Weather History for KPIH - June, 2014

Change the Weather History Date:

Wednesday, June 4, 2014

  Actual Average Record
Temperature  
Mean Temperature 64 °F 59 °F  
Max Temperature 81 °F 74 °F 95 °F (1988)
Min Temperature 46 °F 44 °F 33 °F (2011)
Degree Days  
Heating Degree Days 1 7  
Month to date heating degree days 9 28  
Since 1 June heating degree days 9 28  
Since 1 July heating degree days 6549 7075  
Cooling Degree Days 0 1  
Month to date cooling degree days 0 3  
Year to date cooling degree days 0 8  
Since 1 June cooling degree days 0 3  
Growing Degree Days 14 (Base 50)    
Moisture  
Dew Point 28 °F    
Average Humidity 37    
Maximum Humidity 66    
Minimum Humidity 7    
Precipitation  
Precipitation 0.00 in 0.05 in 0.72 in (1968)
Month to date precipitation 0.00 0.19  
Year to date precipitation 5.71 6.02  
Snow  
Snow 0.00 in - - ()
Month to date snowfall 0.0  
Since 1 June snowfall 0.0  
Since 1 July snowfall 29.4  
Snow Depth 0.00 in    
Sea Level Pressure  
Sea Level Pressure 29.88 in    
Wind  
Wind Speed 14 mph (SW)    
Max Wind Speed 26 mph    
Max Gust Speed 33 mph    
Visibility 10 miles    
Events      
T = Trace of Precipitation, MM = Missing Value Source: NWS Daily Summary

Daily Weather History Graph

Daily Weather History Graph

Search for Another Location

Airport or City:

Astronomy

Jun. 04, 2014 Rise Set
Actual Time 5:52 AM MDT 9:04 PM MDT
Civil Twilight 5:18 AM MDT 9:39 PM MDT
Nautical Twilight 4:33 AM MDT 10:24 PM MDT
Astronomical Twilight 3:39 AM MDT 11:18 PM MDT
Moon 12:22 PM MDT (6/4) 12:59 AM MDT (6/4)
Length of Visible Light 16h 21m
Length of Day
15h 11m
Waxing Crescent, 39% of the Moon is Illuminated
Jun 4
Waxing Crescent
Jun 5
First Quarter
Jun 12
Full
Jun 19
Last Quarter
Jun 27
New

Hourly Weather History & Observations

Time (MDT) Temp. Dew Point Humidity Pressure Visibility Wind Dir Wind Speed Gust Speed Precip Events Conditions
12:53 AM 55.4 °F 33.8 °F 44% 29.96 in 10.0 mi South 8.1 mph - N/A   Clear
1:53 AM 55.0 °F 33.1 °F 43% 29.84 in 10.0 mi SSW 9.2 mph - N/A   Clear
2:53 AM 59.0 °F 33.1 °F 38% 29.83 in 10.0 mi SSW 9.2 mph - N/A   Clear
3:53 AM 55.0 °F 34.0 °F 45% 29.84 in 10.0 mi SSW 4.6 mph - N/A   Clear
4:53 AM 48.9 °F 37.9 °F 66% 29.87 in 10.0 mi SSW 3.5 mph - N/A   Clear
5:53 AM 48.0 °F 37.9 °F 68% 29.87 in 10.0 mi South 9.2 mph - N/A   Clear
6:53 AM 54.0 °F 39.9 °F 59% 29.87 in 10.0 mi SSW 6.9 mph - N/A   Clear
7:53 AM 59.0 °F 42.1 °F 53% 29.89 in 10.0 mi WSW 4.6 mph - N/A   Clear
8:53 AM 64.0 °F 37.0 °F 37% 29.89 in 10.0 mi WSW 12.7 mph - N/A   Clear
9:53 AM 64.9 °F 37.9 °F 37% 29.91 in 10.0 mi SW 15.0 mph - N/A   Clear
10:53 AM 68.0 °F 39.0 °F 35% 29.91 in 10.0 mi WSW 15.0 mph - N/A   Clear
11:53 AM 72.0 °F 39.0 °F 30% 29.90 in 10.0 mi WSW 13.8 mph 19.6 mph N/A   Clear
12:53 PM 75.0 °F 34.0 °F 22% 29.89 in 10.0 mi SW 17.3 mph 25.3 mph N/A   Clear
1:53 PM 78.1 °F 30.0 °F 17% 29.88 in 10.0 mi West 23.0 mph 27.6 mph N/A   Partly Cloudy
2:53 PM 79.0 °F 25.0 °F 14% 29.86 in 10.0 mi WSW 21.9 mph 32.2 mph N/A   Clear
3:53 PM 79.0 °F 17.1 °F 10% 29.86 in 10.0 mi SW 23.0 mph 29.9 mph N/A   Partly Cloudy
4:53 PM 79.0 °F 10.9 °F 8% 29.86 in 10.0 mi WSW 21.9 mph 28.8 mph N/A   Partly Cloudy
5:53 PM 78.1 °F 14.0 °F 9% 29.86 in 10.0 mi WSW 21.9 mph - N/A   Partly Cloudy
6:53 PM 77.0 °F 18.0 °F 11% 29.84 in 10.0 mi WSW 21.9 mph - N/A   Partly Cloudy
7:53 PM 73.0 °F 19.0 °F 13% 29.85 in 10.0 mi SW 16.1 mph - N/A   Partly Cloudy
8:53 PM 69.8 °F 19.4 °F 15% 29.97 in 10.0 mi SW 17.3 mph - N/A   Partly Cloudy
9:53 PM 64.9 °F 12.9 °F 13% 29.87 in 10.0 mi SSW 13.8 mph - N/A   Clear
10:53 PM 61.0 °F 15.1 °F 17% 29.88 in 10.0 mi South 10.4 mph - N/A   Clear
11:53 PM 62.1 °F 14.0 °F 15% 29.88 in 10.0 mi SSW 12.7 mph - N/A   Clear